User: anonymous   Login
Location: Unspecified
(0.0000°N, 0.0000°E)
Time: 19:32:08
(UTC+00:00)
Language:

GONETS M 11 (M21) - Orbit

View from above orbital plane
View from above orbital plane
View from above satellite
View from above satellite

Ground track
Ground track

The orbit data is extracted from the following two-line orbital elements,

1 40552U 15020A   21026.24906194  .00000024  00000-0  10149-3 0  9994
2 40552  82.4865 177.1287 0015847 337.8282  22.2111 12.42875864264303
Epoch (UTC): 26 January 2021 05:58:38
Eccentricity: 0.0015847
inclination: 82.4865°
perigee height: 1482 km
apogee height: 1507 km
right ascension of ascending node: 177.1287°
argument of perigee: 337.8282°
revolutions per day: 12.42875864
mean anomaly at epoch: 22.2111°
orbit number at epoch: 26430

The dashed part of the orbit path shows where the satellite is in the earth's shadow,  

DLR